This is the latest recevied weather packets stored in our database for station/object K5MGY. If no packets are shown the sender has not sent any weather packets the latest 10 day(s).
| Time | Temp. | Humidity | Pressure | Rain* | Wind** | Luminosity | Snow |
|---|---|---|---|---|---|---|---|
| 1777815963 | 17.78° C | 63% | 1045.9 hPa | 0 mm | - | 52 W/m² | - |
| 1777815661 | 17.22° C | 64% | 1045.9 hPa | 0 mm | - | 58 W/m² | - |
| 1777815358 | 16.67° C | 67% | 1045.7 hPa | 0 mm | - | 115 W/m² | - |
| 1777815055 | 16.11° C | 68% | 1045.8 hPa | 0 mm | - | 90 W/m² | - |
| 1777814751 | 16.11° C | 70% | 1045.6 hPa | 0 mm | - | 87 W/m² | - |
| 1777814448 | 15.56° C | 70% | 1045.5 hPa | 0 mm | - | 123 W/m² | - |
| 1777814145 | 15° C | 72% | 1045.7 hPa | 0 mm | - | 24 W/m² | - |
| 1777813842 | 15° C | 74% | 1045.7 hPa | 0 mm | - | 23 W/m² | - |
| 1777813539 | 14.44° C | 76% | 1045.7 hPa | 0 mm | - | 22 W/m² | - |
| 1777813238 | 13.89° C | 77% | 1045.8 hPa | 0 mm | - | 22 W/m² | - |
| 1777812935 | 13.89° C | 78% | 1045.5 hPa | 0 mm | - | 21 W/m² | - |
| 1777812632 | 13.33° C | 80% | 1045.5 hPa | 0 mm | - | 20 W/m² | - |
| 1777812328 | 12.78° C | 81% | 1045.5 hPa | 0 mm | - | 18 W/m² | - |
| 1777812027 | 12.78° C | 83% | 1045.6 hPa | 0 mm | - | 18 W/m² | - |
| 1777811725 | 12.22° C | 85% | 1045.5 hPa | 0 mm | - | 16 W/m² | - |
| 1777811421 | 11.67° C | 87% | 1045.6 hPa | 0 mm | - | 15 W/m² | - |
| 1777811117 | 11.11° C | 88% | 1045.3 hPa | 0 mm | - | 14 W/m² | - |
| 1777810815 | 11.11° C | 89% | 1045.1 hPa | 0 mm | - | 13 W/m² | - |
| 1777810512 | 10.56° C | 89% | 1045.2 hPa | 0 mm | - | 11 W/m² | - |
| 1777810208 | 10.56° C | 89% | 1045.1 hPa | 0 mm | - | 10 W/m² | - |
| 1777809904 | 10.56° C | 88% | 1045.2 hPa | 0 mm | - | 8 W/m² | - |
| 1777809603 | 10.56° C | 88% | 1045.1 hPa | 0 mm | - | 7 W/m² | - |
| 1777809300 | 10.56° C | 87% | 1045.1 hPa | 0 mm | - | 5 W/m² | - |
| 1777808997 | 10.56° C | 87% | 1044.9 hPa | 0 mm | - | 4 W/m² | - |
| 1777808695 | 11.11° C | 87% | 1044.9 hPa | 0 mm | - | 2 W/m² | - |
* Rain latest hour (hover to see other rain measurements)
** Current wind speed in m/s (hover to see current wind gust speed)